Theta_e
338 338 339 340 340 340 341 342 344 344 346 347 348 349 349 351 352 354 354 355 355 356 358 358 358 358 357 357 358 359 359 358 359 357 357 357 358 359 359 359 359 361 360 360 363 363 367 369 368 369 370 369 369 369 370 370 370 369 370 370 368 368 369
336 337 338 339 340 340 342 343 344 344 346 347 347 349 349 350 352 354 354 356 356 357 358 358 359 358 358 358 359 360 359 358 359 358 358 358 360 360 360 360 360 362 363 363 364 367 368 367 368 368 368 369 368 370 369 370 370 370 368 368 366 365 366
335 337 338 338 339 340 342 342 344 344 345 346 347 348 348 351 354 354 355 355 356 357 358 358 359 359 359 359 359 359 359 358 358 357 356 355 357 356 359 361 360 360 361 364 365 365 366 366 368 368 368 368 367 369 369 369 370 369 370 370 367 365 366
334 336 338 339 340 342 342 343 343 343 344 345 346 348 349 353 354 355 355 355 355 356 357 357 358 358 359 360 359 359 359 359 358 357 356 356 356 357 359 360 360 360 361 361 362 363 363 365 366 367 367 367 367 368 368 368 368 369 369 369 366 366 366
335 337 337 338 339 341 341 342 342 343 343 345 347 349 350 352 352 354 355 355 355 355 356 357 357 358 359 360 359 359 359 359 359 358 357 357 359 359 358 356 358 358 359 360 362 364 364 365 363 365 366 367 366 367 367 368 368 369 369 369 365 364 363
333 335 336 338 339 340 340 342 342 342 343 343 345 347 349 349 350 351 352 354 354 356 357 358 357 358 358 359 359 359 360 360 361 360 359 359 359 358 357 357 357 358 357 359 360 361 363 363 362 363 363 363 363 363 365 366 366 367 368 367 365 364 363
332 335 336 338 338 340 340 341 342 343 344 344 345 347 348 348 349 350 351 352 353 354 355 355 356 357 359 359 359 360 360 359 360 359 359 359 359 358 358 358 359 358 359 361 359 360 360 361 362 363 363 362 363 362 364 366 366 367 367 366 364 363 364
334 335 337 338 338 339 340 342 342 343 343 344 344 345 345 347 348 349 350 351 352 353 353 354 355 357 358 359 359 359 359 359 359 359 359 358 358 358 358 358 358 359 360 359 360 360 359 361 361 362 362 362 363 364 365 367 368 366 367 366 364 364 362
334 337 337 336 338 339 340 342 343 342 343 344 344 345 345 346 347 348 350 351 352 352 353 353 354 356 359 358 359 359 359 359 359 359 359 357 357 356 356 357 359 359 359 357 357 360 359 359 360 362 363 362 362 365 365 366 366 366 366 365 365 365 364
333 336 339 338 339 338 340 342 344 345 344 344 345 346 345 346 347 348 349 350 351 351 352 353 354 356 358 358 357 358 359 359 359 357 357 356 356 356 357 357 358 359 358 357 357 357 360 360 360 362 363 362 362 364 364 364 364 364 365 365 366 366 366
332 338 340 337 338 339 341 341 343 345 345 345 346 345 346 346 347 348 349 350 350 351 352 353 355 355 356 356 356 356 357 357 357 356 356 356 356 356 356 356 357 358 357 357 356 358 359 360 361 362 362 360 361 362 363 363 364 364 363 364 365 365 364
331 336 340 339 339 340 339 342 344 345 347 346 345 344 347 348 347 347 349 350 351 351 352 353 354 355 355 355 354 356 356 357 356 356 356 356 356 356 356 356 356 357 357 357 357 357 358 359 359 360 361 361 361 362 363 364 364 365 364 363 364 364 364
328 333 338 337 340 340 344 346 346 347 348 345 344 344 346 346 346 347 350 350 350 351 352 354 354 355 355 354 354 355 356 356 356 356 356 357 356 357 357 356 356 356 356 358 357 357 357 357 359 360 360 362 362 361 363 364 364 365 365 364 364 364 365
334 329 333 338 340 341 342 345 346 347 347 345 344 345 345 346 346 347 350 349 350 351 352 353 354 356 356 355 354 356 355 356 357 357 357 358 359 358 357 357 357 357 357 358 357 356 357 357 357 359 360 361 362 362 364 364 364 365 365 365 364 364 364
322 327 331 333 339 343 343 342 345 347 346 346 345 345 345 346 347 349 350 350 351 351 352 355 356 356 355 355 355 356 357 358 358 358 358 358 359 358 357 357 358 358 358 358 358 357 358 358 358 358 359 360 361 362 363 362 362 363 364 364 364 364 362
316 318 323 330 336 338 343 343 345 348 348 348 345 346 345 346 348 348 348 349 350 351 353 355 356 355 354 354 355 358 359 359 359 358 359 358 358 359 358 357 358 357 357 358 358 358 359 359 359 358 358 359 361 362 362 362 362 355 342 346 362 364 362
320 317 318 325 332 338 341 343 345 347 348 348 347 347 345 348 347 347 347 349 350 353 354 355 355 354 354 354 356 357 359 359 359 359 358 358 358 359 358 358 358 358 358 358 358 358 360 359 358 357 358 358 359 360 360 361 360 341 334 334 338 357 363
332 326 321 320 324 333 340 341 344 346 346 345 345 346 347 349 347 348 346 348 349 350 352 352 353 353 354 355 356 358 359 357 358 358 358 358 358 359 359 358 358 358 359 358 358 359 359 358 358 359 358 357 358 358 359 360 346 334 332 332 331 339 360
340 337 331 326 324 330 334 338 342 346 344 345 345 345 346 348 347 348 348 351 352 352 351 351 351 354 355 355 358 358 358 358 358 358 358 358 358 359 359 359 358 358 357 356 358 358 358 358 358 358 358 358 358 357 357 359 341 332 330 331 330 329 342
341 342 335 330 327 326 333 340 342 345 346 347 347 346 347 349 348 350 352 352 354 352 354 353 352 354 355 356 357 357 358 358 358 357 358 358 358 359 358 357 357 356 356 356 358 358 357 357 358 359 359 359 359 359 359 359 342 329 328 328 327 328 334
342 344 339 332 332 331 337 343 345 348 348 347 346 348 348 348 349 353 354 353 352 353 355 354 353 355 356 356 357 357 357 358 358 357 358 358 358 358 357 357 357 357 356 356 356 357 357 357 357 358 359 359 358 359 358 357 337 326 325 324 323 325 330
342 344 344 338 335 338 343 340 343 343 347 348 347 347 348 348 349 350 351 352 352 351 353 354 356 356 356 355 355 356 357 358 358 358 359 358 358 357 357 357 358 357 357 357 356 358 358 358 357 357 358 358 358 357 357 358 333 326 323 322 322 323 344
344 345 347 345 339 341 348 347 348 346 351 349 348 347 347 348 350 351 351 351 350 352 353 354 355 354 355 355 355 356 358 358 357 358 358 358 357 357 356 357 358 358 359 357 356 356 356 357 357 358 358 357 358 357 357 357 340 323 321 320 320 325 351
346 348 348 342 341 346 349 348 348 352 347 349 348 348 349 351 352 353 353 351 352 353 353 353 353 355 356 355 356 358 359 359 358 358 358 358 357 357 357 358 358 358 359 357 356 355 356 358 357 358 359 357 357 357 357 357 344 321 319 318 318 331 353
346 348 349 344 341 342 344 349 349 349 351 349 347 349 352 352 353 355 353 352 351 351 351 352 353 355 356 357 359 360 359 359 359 358 358 358 358 358 358 358 359 359 360 358 358 357 359 359 358 358 359 358 357 350 353 357 347 321 319 317 316 331 356
345 347 350 349 343 346 351 354 353 348 348 347 349 350 352 352 353 353 351 350 350 350 351 353 355 357 359 360 360 360 359 359 360 359 358 358 359 359 359 360 359 360 359 359 359 358 358 358 359 358 359 359 358 357 356 357 359 350 318 316 314 319 352
345 347 349 350 351 350 349 350 349 346 346 350 354 350 351 351 352 354 355 354 353 352 353 357 360 361 361 362 360 359 359 359 360 359 359 360 360 360 360 361 360 360 360 359 358 359 359 359 359 358 359 359 360 359 359 359 358 357 319 316 314 315 326
342 345 349 351 353 355 352 347 350 349 348 354 352 350 352 354 355 356 356 354 354 356 357 361 362 363 363 362 360 360 360 360 362 362 360 362 363 362 361 362 362 361 360 359 359 360 359 360 359 359 358 360 359 360 360 358 347 360 327 316 313 313 314
336 340 343 346 349 352 353 353 351 349 349 349 350 352 354 354 355 355 355 355 357 359 361 362 361 363 363 362 361 362 361 362 362 361 361 362 363 363 362 362 362 362 362 361 361 360 359 359 358 358 357 359 359 360 361 362 359 335 351 317 313 312 312
333 337 341 344 346 349 351 352 355 355 356 353 356 356 356 355 355 356 355 356 360 362 362 363 363 364 363 363 362 362 362 363 363 363 363 364 364 363 362 362 362 362 362 361 360 359 357 357 357 357 356 356 357 359 360 363 362 343 333 338 313 313 311
329 333 337 341 343 347 350 350 351 354 356 359 360 361 359 358 357 357 355 362 365 363 361 362 362 362 361 361 362 363 362 363 363 363 364 364 364 363 362 363 363 361 362 362 360 359 357 357 357 357 356 356 357 358 360 361 361 361 345 330 321 314 312
328 330 334 338 342 345 348 350 352 353 353 355 360 364 364 363 362 359 363 365 365 365 365 363 362 361 361 361 362 362 362 363 363 364 365 365 364 364 363 363 362 361 362 361 360 360 358 357 357 357 357 357 358 358 360 362 363 361 362 340 333 323 314
326 328 331 335 339 344 346 348 348 349 350 351 355 358 361 365 366 366 366 366 367 368 368 365 363 361 362 361 361 363 363 363 362 363 365 366 365 365 365 363 364 363 361 362 360 359 358 358 357 357 356 356 358 359 361 362 361 361 361 360 354 348 338
325 326 331 334 338 342 344 345 346 347 347 347 351 354 356 358 359 362 364 364 366 366 367 365 365 362 363 363 364 364 364 364 363 363 363 364 364 363 363 364 365 363 362 361 361 360 359 359 357 356 358 357 358 360 361 360 361 362 360 360 359 355 353
324 325 329 331 334 339 340 343 345 347 347 347 350 353 354 355 356 360 363 365 367 368 366 364 362 364 363 363 362 363 366 367 366 364 363 364 367 352 339 355 366 365 366 367 368 365 363 362 361 361 362 361 360 360 360 360 360 362 341 362 338 353 357
323 325 327 330 333 335 338 342 344 346 347 348 350 352 353 354 355 357 358 362 367 369 367 365 363 363 363 363 362 362 361 361 362 364 362 364 358 344 331 309 299 309 351 367 340 332 330 336 361 365 365 363 364 366 362 362 364 339 326 323 321 319 324
323 324 325 328 329 331 334 338 341 345 347 348 350 351 352 352 353 355 357 359 362 368 371 369 366 365 364 363 363 360 361 360 360 363 366 360 353 349 344 342 332 300 295 303 311 311 314 312 313 314 326 358 366 362 336 328 318 320 317 312 312 310 310
324 325 326 327 328 329 331 334 337 339 343 348 349 350 351 351 351 352 353 357 359 362 368 371 369 367 366 366 365 360 364 365 364 364 361 356 354 352 349 350 349 339 306 297 300 298 294 295 297 299 305 308 322 348 361 327 310 308 309 309 310 309 307
Wind_Speed
18 17 18 17 17 19 20 19 21 20 20 19 19 22 21 19 19 17 17 18 19 19 18 18 18 17 18 17 16 15 14 13 11 12 11 11 10 10 10 10 10 9 9 9 9 9 7 7 7 7 7 7 8 7 7 7 7 6 6 6 6 6 7
16 17 18 18 19 19 20 19 19 18 18 19 19 22 21 21 19 18 17 18 20 19 19 19 18 17 17 17 14 16 15 14 13 11 11 9 9 9 10 10 10 10 10 9 8 7 7 8 8 7 8 7 8 7 8 8 8 7 6 7 7 7 7
16 17 18 19 20 19 20 19 20 20 20 19 19 20 21 21 20 20 18 18 20 19 18 19 19 18 17 16 16 17 16 15 14 14 14 13 14 14 11 10 10 9 10 9 8 7 7 8 8 8 8 8 8 8 8 8 8 8 7 7 7 7 7
15 17 19 22 22 21 21 21 23 22 20 22 22 22 22 20 20 18 18 20 20 19 20 19 18 18 17 17 16 15 16 16 15 15 15 14 13 12 11 10 9 9 8 10 9 8 7 8 9 8 8 8 8 8 8 9 8 8 8 8 7 7 8
16 17 17 17 19 16 17 18 20 21 23 24 22 20 21 20 20 19 19 20 21 22 21 20 18 17 15 16 13 13 15 17 15 14 14 13 12 12 12 13 12 12 11 10 9 8 8 8 9 9 9 8 8 8 8 8 8 8 8 8 7 8 8
15 15 16 17 18 19 20 22 23 24 24 24 24 23 20 22 20 23 22 20 20 19 18 19 19 18 17 17 15 14 14 15 14 14 14 14 13 13 13 14 13 13 12 11 10 9 10 9 10 10 10 10 10 9 9 9 9 9 8 8 8 8 8
14 16 16 17 18 19 21 22 23 23 23 22 21 19 19 21 22 22 20 21 22 22 21 21 20 18 16 15 16 15 16 16 15 16 14 14 14 13 13 13 12 12 11 9 10 10 10 11 10 10 10 10 10 10 9 9 8 8 8 8 9 9 9
14 14 16 18 19 20 20 21 22 21 19 18 19 20 23 22 20 22 23 22 22 21 20 21 20 18 16 15 15 17 17 17 16 15 14 15 14 14 13 13 12 11 10 11 11 10 11 11 10 10 10 11 11 10 10 9 9 9 8 8 9 10 8
16 16 18 19 19 19 19 19 20 20 21 22 24 23 24 22 21 22 23 21 21 21 22 21 20 18 16 16 15 17 16 16 15 15 16 16 15 16 15 13 13 11 12 12 11 11 11 11 11 10 11 11 10 10 10 10 9 9 9 9 10 9 9
14 13 13 14 14 15 16 15 16 15 17 17 16 16 20 20 20 20 20 21 21 23 23 21 19 18 17 16 17 17 16 16 15 17 17 17 15 16 16 14 13 12 13 13 11 11 11 11 11 11 10 11 10 10 10 10 10 9 9 10 10 9 10
8 9 9 12 13 15 14 15 17 16 18 19 18 19 19 19 20 20 21 20 21 21 21 20 18 18 18 18 19 18 17 17 16 16 17 17 15 17 16 15 13 12 14 13 13 12 11 11 11 11 11 11 12 11 11 11 10 10 10 9 9 10 10
6 6 8 12 13 13 16 16 16 16 16 16 18 20 19 17 19 20 20 21 20 20 19 19 18 18 18 18 18 17 18 18 17 17 18 18 17 17 16 15 14 13 13 14 14 13 12 12 11 11 12 12 12 12 11 10 10 10 11 11 10 9 10
8 9 9 12 12 13 13 11 14 17 17 18 21 20 19 20 20 20 18 20 20 19 19 18 17 17 17 19 19 17 18 18 18 17 17 16 16 14 14 15 15 15 14 14 14 13 13 13 13 11 12 12 12 12 11 11 11 10 10 10 10 10 10
7 9 11 10 10 12 13 15 15 16 17 19 19 19 18 19 19 20 18 20 19 19 18 16 17 16 17 18 17 16 18 17 17 16 16 15 14 15 15 15 14 14 13 13 14 14 14 14 14 12 12 12 12 12 11 11 11 11 11 11 11 10 10
9 8 10 13 13 14 15 16 16 15 17 18 19 19 20 18 18 16 16 17 17 18 19 17 16 16 17 16 16 16 16 15 15 14 14 15 14 15 14 14 14 13 13 13 13 12 14 14 13 13 13 13 12 12 11 11 11 10 10 11 11 11 11
11 12 11 10 14 16 16 17 17 16 17 16 20 20 20 18 17 18 19 19 19 18 18 16 16 17 17 18 17 15 15 14 14 14 14 14 14 14 14 13 13 13 14 14 14 13 12 12 13 13 13 13 12 12 11 11 10 11 15 12 10 11 10
12 14 15 14 12 15 16 17 17 16 16 17 18 19 19 17 18 19 22 19 19 17 17 17 16 17 18 18 17 15 15 14 13 13 14 14 13 13 14 14 13 13 13 13 13 14 12 12 13 14 13 13 13 13 12 11 11 14 15 16 15 11 10
12 14 16 17 16 14 15 17 16 17 19 21 21 21 18 16 16 18 20 19 19 19 17 18 18 19 18 17 15 15 15 15 14 14 14 14 14 14 14 14 14 13 13 13 14 13 13 13 14 14 13 12 13 13 13 12 13 15 16 16 16 14 12
13 14 15 16 16 15 16 18 18 19 22 21 21 21 22 20 19 19 19 18 17 17 18 20 20 17 16 16 15 15 14 14 15 15 14 15 15 13 13 14 14 14 14 15 14 13 13 14 14 14 13 13 14 14 14 13 13 16 17 17 17 17 14
14 14 16 16 17 16 16 14 15 18 20 20 22 24 22 21 20 16 14 14 14 18 16 16 17 15 15 14 15 15 15 15 15 15 15 14 14 14 14 14 15 15 14 13 13 13 13 15 15 13 13 14 14 13 13 14 13 17 18 17 17 17 14
14 13 14 15 15 15 14 15 15 14 15 16 17 15 15 15 14 13 14 16 17 16 14 15 16 15 15 15 15 15 15 15 15 15 14 14 14 14 14 15 14 15 14 13 14 14 14 14 15 14 14 14 14 13 13 13 14 15 18 18 18 17 14
14 13 13 13 13 12 11 16 17 19 17 16 17 17 16 17 16 16 16 16 17 17 16 16 14 15 15 15 16 17 16 16 15 15 14 14 14 15 15 15 14 15 14 13 13 12 12 12 13 14 14 15 15 14 14 14 15 16 17 18 17 17 11
14 13 12 12 12 11 8 8 9 11 11 12 16 16 17 17 16 16 16 17 17 17 16 15 14 15 16 16 17 16 16 16 16 15 15 15 15 16 16 15 14 14 12 13 13 12 13 13 14 13 13 15 14 15 14 14 14 16 17 17 18 14 10
11 11 10 8 8 7 9 10 11 12 15 15 15 15 15 16 16 15 15 16 16 16 16 17 17 17 16 16 16 15 15 15 15 15 15 15 16 16 15 14 13 14 12 13 14 14 13 13 12 13 13 15 15 15 14 14 12 17 17 18 18 16 11
11 10 9 6 4 10 11 11 13 15 15 16 16 15 15 17 17 15 15 16 17 18 18 18 18 17 17 17 15 15 15 15 16 16 16 16 16 15 15 15 14 13 12 13 13 13 12 12 12 12 12 14 16 14 16 15 13 17 18 19 19 16 11
13 12 11 8 4 2 9 11 13 16 17 18 17 17 17 17 16 16 16 17 17 18 18 18 18 17 15 15 15 15 15 15 16 16 16 16 15 15 14 13 13 13 12 12 12 12 12 12 11 13 12 12 14 13 15 15 14 13 20 19 19 20 13
12 12 11 11 7 3 7 11 14 16 18 14 15 17 18 17 16 15 15 16 16 18 19 17 14 14 14 14 15 15 16 15 16 17 16 15 15 14 13 12 13 12 12 13 12 12 12 13 12 12 12 12 12 13 14 13 14 13 19 19 20 21 18
14 15 13 11 12 8 3 7 8 12 14 14 16 17 16 15 15 14 14 15 17 18 15 13 14 13 12 13 15 15 15 15 14 15 14 13 12 12 12 11 12 12 13 12 11 12 13 12 11 10 11 11 12 12 13 13 15 13 15 19 20 21 23
15 15 16 15 13 11 6 5 6 8 12 14 17 14 14 16 15 14 14 16 17 13 12 12 13 13 13 14 14 14 14 14 15 13 12 12 13 13 13 11 12 12 11 12 12 12 13 13 14 13 13 11 12 12 12 12 11 17 12 17 20 22 22
16 16 15 15 14 10 7 7 6 6 5 8 9 10 12 15 14 13 14 15 10 10 10 11 12 12 13 13 13 13 13 14 14 14 12 13 13 13 13 12 12 12 11 13 13 12 14 14 13 14 14 14 13 13 13 11 11 12 17 14 21 20 22
13 15 15 15 16 14 11 7 8 7 8 6 6 6 9 10 13 13 14 9 9 11 12 12 12 12 13 13 13 13 13 12 13 14 13 13 13 13 12 13 12 11 12 14 13 13 14 14 13 13 14 14 14 13 12 11 11 10 13 19 18 21 21
16 16 15 16 16 16 12 12 11 11 11 10 8 6 5 7 10 12 8 8 9 11 11 11 12 12 12 12 13 13 13 13 14 14 14 14 12 13 12 13 13 12 11 12 12 12 13 14 14 13 13 13 13 13 11 10 9 10 9 12 15 16 20
14 14 15 16 17 15 13 13 13 12 12 12 9 8 7 7 6 7 8 7 8 8 9 10 11 11 11 11 11 11 12 13 12 11 12 12 11 12 12 12 11 11 11 12 12 13 14 14 14 14 13 13 13 13 11 9 9 9 10 9 9 9 11
14 14 16 15 15 15 14 14 14 13 11 10 8 8 8 9 8 7 7 7 7 8 8 9 10 10 10 11 9 9 10 11 12 12 10 12 12 12 12 12 11 11 12 12 12 14 14 14 14 14 14 13 13 12 10 10 9 9 10 10 10 10 9
14 14 14 16 15 15 13 13 13 12 11 9 7 7 7 7 6 6 7 7 8 8 8 8 9 6 7 8 8 7 6 7 8 10 10 9 9 2 3 2 8 11 11 10 10 12 12 12 11 11 11 11 11 10 10 10 10 10 10 11 11 11 10
16 15 15 15 13 14 14 13 12 11 10 8 7 7 7 7 6 5 5 4 4 8 9 8 7 7 7 7 7 7 7 6 7 8 8 8 6 5 3 6 6 7 3 7 4 2 3 4 9 9 9 10 10 10 10 10 9 9 12 13 13 14 14
15 14 15 15 15 15 14 13 13 11 10 8 7 7 7 7 6 6 5 4 4 3 6 8 6 6 6 6 6 7 7 7 7 7 6 4 5 6 6 4 5 10 11 9 5 4 3 5 7 9 8 7 8 6 5 5 8 3 9 13 14 14 13
13 14 14 15 14 13 14 14 14 12 10 7 7 7 7 7 7 7 6 5 4 4 3 4 5 5 5 4 5 6 6 5 7 7 6 5 6 6 6 6 6 3 10 12 9 10 10 10 11 11 11 13 11 6 4 2 2 3 3 4 5 6 8
Wind_Direction
198 197 198 195 193 197 198 193 189 191 190 189 189 190 189 189 188 185 185 184 187 188 187 187 189 193 194 199 198 197 197 195 194 196 197 202 203 201 197 198 199 199 200 203 205 206 204 196 197 200 199 202 207 205 204 202 201 202 203 211 224 232 231
198 199 197 193 194 197 197 192 188 190 191 190 189 189 190 189 186 183 184 182 186 187 185 188 188 191 192 195 195 197 196 195 194 195 198 200 197 200 197 197 200 199 199 204 201 198 193 196 199 202 204 202 208 206 204 204 205 202 203 204 220 231 231
199 199 197 197 198 198 194 189 187 191 192 191 190 189 189 187 184 184 183 183 185 188 187 189 190 191 191 192 193 197 195 195 194 195 197 201 203 207 202 201 202 204 205 201 200 198 195 198 198 203 204 206 207 204 205 205 205 205 205 200 213 225 227
199 198 197 197 196 194 188 187 189 192 193 193 192 190 188 184 180 181 183 184 185 186 188 189 189 191 191 191 191 191 194 196 197 198 202 204 203 200 197 196 199 204 198 203 203 199 196 195 198 203 201 207 206 206 206 209 207 206 206 204 215 226 234
201 199 197 197 196 189 187 190 190 191 194 195 193 189 189 182 182 184 185 188 189 190 190 188 189 191 192 191 191 192 192 193 195 198 200 201 198 192 196 202 200 204 206 201 195 190 190 194 203 203 204 207 209 206 207 206 209 204 208 207 223 228 233
198 195 197 198 196 194 192 192 191 192 193 192 190 187 186 184 187 189 188 186 190 191 189 188 190 190 191 192 192 191 190 192 193 194 196 196 192 193 199 201 202 203 202 197 196 198 194 200 206 206 209 210 213 214 210 208 209 207 208 207 224 229 231
196 195 198 199 196 195 194 194 194 194 192 193 190 185 183 186 189 189 188 189 188 187 188 189 190 190 191 188 192 188 187 189 191 195 196 197 196 198 201 200 202 202 204 194 199 196 198 201 206 207 209 215 215 216 212 207 206 204 209 210 220 228 232
194 193 198 197 197 196 195 193 194 193 189 186 185 185 185 189 187 187 190 189 188 189 188 189 189 191 188 189 190 191 191 193 193 195 195 198 199 200 200 200 199 198 194 197 199 198 203 204 207 208 209 213 214 213 214 209 204 205 203 208 213 222 226
199 195 197 199 197 197 195 191 187 184 179 181 186 187 186 186 187 188 189 187 187 189 191 191 191 188 184 185 187 191 191 191 193 192 194 196 199 202 203 201 199 194 196 204 206 202 206 207 209 206 206 211 214 212 213 213 211 209 210 213 214 216 218
203 198 201 200 199 196 194 186 175 175 176 179 181 182 185 189 189 186 185 187 187 190 189 189 188 185 183 184 189 190 188 190 192 192 193 197 201 203 204 201 198 194 199 203 206 203 203 206 207 204 201 208 212 212 213 213 213 211 212 215 216 218 219
220 205 192 191 192 189 182 178 173 177 180 183 184 184 184 185 184 184 185 186 188 189 187 185 185 184 184 186 191 191 192 193 192 193 195 199 201 203 202 201 197 194 200 202 207 207 201 201 203 204 203 208 211 213 214 214 212 213 217 219 219 221 223
229 222 202 197 191 178 183 186 184 186 185 185 185 188 184 182 183 185 183 186 187 185 184 184 184 183 182 186 190 191 193 193 193 195 196 198 200 201 200 199 198 196 198 201 205 206 206 202 202 204 206 209 212 212 213 211 212 213 216 221 221 221 224
196 200 207 206 192 189 186 184 186 186 186 185 188 188 183 186 186 186 182 182 184 185 183 181 179 179 179 184 189 189 191 190 192 194 195 195 198 198 198 199 200 200 200 199 204 204 207 208 206 204 206 209 210 213 211 210 211 213 215 218 221 221 222
216 194 202 194 190 187 189 193 191 189 186 187 188 186 182 184 185 185 178 179 182 182 180 178 175 173 176 182 187 188 189 190 192 193 193 193 193 196 197 198 200 200 200 198 202 207 209 209 207 205 206 210 211 212 211 209 212 213 214 215 218 219 223
286 247 204 193 189 188 194 192 192 188 186 186 184 180 180 181 182 180 176 179 179 181 181 174 169 170 176 181 186 188 185 185 189 190 189 189 188 192 195 196 197 197 198 198 202 207 210 210 209 208 209 212 212 212 210 212 215 215 212 213 216 221 226
266 266 255 215 193 196 197 198 192 187 184 181 184 182 181 179 178 176 174 178 179 181 181 170 171 173 180 186 189 185 180 181 184 186 187 187 189 190 192 196 197 197 198 199 202 206 208 210 209 210 210 210 210 210 211 215 218 211 203 205 215 218 222
262 257 252 242 218 200 200 197 191 184 181 183 185 181 183 179 177 180 183 181 179 174 175 170 170 177 183 189 188 184 181 181 184 184 186 189 190 190 194 197 198 201 201 202 203 205 204 204 207 211 214 213 212 212 214 217 220 204 196 204 209 218 224
270 260 255 251 241 218 205 200 188 180 183 187 187 184 182 175 173 175 183 181 182 179 175 177 179 183 187 188 181 181 180 185 187 189 189 186 190 190 193 196 198 199 198 198 201 201 202 205 209 213 215 216 217 217 217 220 217 197 196 200 203 208 222
282 273 261 250 243 231 214 203 191 183 188 187 186 184 183 177 176 180 183 176 175 169 175 180 182 182 181 182 178 178 180 182 185 187 188 190 191 191 190 194 197 199 200 204 205 203 205 210 211 213 213 215 216 219 220 226 210 196 196 199 199 202 212
291 286 275 261 250 237 216 197 195 191 184 183 183 183 181 178 179 174 171 162 154 168 174 175 180 179 177 181 180 179 181 184 186 188 190 188 188 189 192 195 200 203 205 206 204 205 207 209 212 212 211 214 217 220 223 226 213 194 196 198 198 198 200
297 295 285 265 249 234 207 185 185 180 179 184 179 168 167 169 167 155 155 160 168 173 168 173 176 174 176 179 179 180 183 186 188 190 189 187 187 190 195 197 200 202 204 204 204 203 205 208 211 214 214 215 216 220 224 228 216 194 195 197 196 196 196
299 297 291 274 241 221 201 192 187 184 183 179 169 173 169 167 168 165 168 168 169 172 175 174 174 173 175 180 184 186 187 186 187 188 188 188 190 194 197 198 198 199 200 205 208 209 208 210 213 214 215 216 219 222 227 230 209 195 194 195 195 190 198
302 301 293 279 251 211 182 172 163 169 146 157 170 169 170 166 165 161 160 167 172 172 173 174 176 179 183 186 186 187 186 186 187 188 190 190 192 196 198 198 199 200 198 203 208 208 209 211 211 214 217 218 218 221 227 232 208 193 193 194 191 184 206
316 318 313 293 245 180 155 155 151 141 159 158 165 166 162 158 155 154 159 166 168 166 170 177 183 184 183 186 186 186 184 184 186 189 190 191 195 197 199 200 202 202 198 203 206 212 213 212 214 214 216 218 219 218 223 230 211 188 194 193 185 188 201
339 344 341 334 256 176 165 151 153 151 147 152 160 160 150 155 155 152 159 168 173 175 179 184 186 185 184 185 183 181 182 185 188 191 192 195 196 198 199 201 202 202 200 205 208 213 214 214 215 215 215 218 221 214 221 231 219 188 194 193 187 191 207
1 2 4 0 348 196 145 134 131 149 154 161 160 155 157 157 155 162 168 174 175 179 185 188 188 186 181 179 180 182 185 189 191 194 196 196 197 199 201 199 200 201 200 203 206 210 214 213 214 216 217 218 219 220 220 227 232 197 193 192 189 191 202
18 15 17 13 17 42 147 152 155 160 165 158 149 158 159 159 160 163 165 167 176 185 189 185 178 172 175 177 181 186 189 191 192 193 196 198 198 198 200 199 200 199 199 203 206 210 214 215 216 219 222 222 221 225 223 223 225 212 187 194 189 193 199
15 27 30 30 27 30 107 153 154 156 155 150 157 159 159 158 161 163 163 171 184 191 182 171 168 168 170 175 184 189 191 192 193 193 197 198 195 195 198 201 202 202 202 204 205 207 212 211 214 218 223 225 224 226 227 221 212 227 186 190 190 192 198
13 25 30 28 29 28 43 88 123 151 153 162 165 163 158 160 162 167 172 185 191 178 168 161 166 171 175 178 184 188 190 192 189 189 195 196 194 193 196 196 197 199 198 199 202 208 212 217 223 227 229 230 236 235 227 225 214 212 208 187 192 193 198
10 17 20 30 37 41 50 61 67 78 111 153 160 158 159 165 164 169 179 188 167 160 158 159 168 168 174 178 185 186 189 190 190 190 195 195 192 195 200 199 198 198 200 208 209 212 222 227 226 229 234 236 236 236 234 221 225 201 206 193 192 196 199
1 11 13 16 26 37 54 73 90 80 74 69 114 136 155 165 166 166 177 162 148 162 166 169 168 172 180 184 186 187 190 191 193 194 196 196 192 194 198 200 195 197 207 212 214 215 224 227 225 223 227 231 235 237 230 222 218 224 197 200 192 198 200
0 3 8 11 15 15 32 61 78 74 74 61 53 81 119 154 159 162 152 139 160 166 167 167 170 176 182 183 185 186 188 191 194 195 196 195 195 196 198 198 197 200 199 204 205 209 217 224 223 225 227 231 235 238 231 218 218 221 210 191 199 200 203
353 358 5 10 9 13 19 35 54 60 64 67 51 61 69 73 83 111 131 155 164 165 161 163 168 175 180 186 186 186 189 193 196 196 197 197 198 199 200 200 200 199 199 200 205 212 219 223 226 228 228 229 234 237 230 221 217 213 212 194 192 200 201
357 356 3 3 4 12 19 28 39 43 41 49 43 51 67 95 108 116 138 153 166 165 160 166 177 180 182 181 179 183 190 195 189 190 196 197 200 205 205 206 205 204 201 202 204 211 216 221 225 226 226 227 227 226 223 225 219 215 212 208 201 200 194
358 359 2 4 360 5 16 22 27 28 34 36 32 46 59 58 66 79 103 124 145 160 166 167 170 170 167 175 179 188 183 189 182 195 198 195 191 120 28 255 219 213 212 207 203 204 204 209 213 211 213 211 216 218 223 226 223 220 209 211 196 197 199
1 2 6 5 2 6 5 10 18 24 25 27 24 38 46 49 49 46 46 52 97 142 155 159 160 159 170 178 182 186 184 192 194 194 197 193 151 135 112 59 62 17 285 215 98 127 226 211 209 210 210 218 220 216 220 222 223 225 201 203 196 200 202
5 4 3 3 2 3 3 3 2 7 15 13 17 31 36 39 34 31 30 28 34 69 121 144 151 149 153 164 178 177 181 187 190 195 188 144 135 156 149 142 76 49 38 20 12 354 322 305 295 314 291 238 224 219 220 281 336 332 191 195 200 203 206
10 7 1 3 6 3 2 2 3 360 360 2 8 22 27 36 29 17 17 18 19 22 73 119 135 133 138 150 142 149 169 169 174 175 162 156 159 157 164 165 161 107 38 35 36 49 50 37 19 2 350 324 302 274 195 178 11 48 100 146 146 141 136